DELTA 1 R/B, 738

Orbit data source: Space-Track

DELTA 1 R/B, 738 is space debris originally from a launch on Tue, 21 Jan 1964 UTC launched from the Air Force Eastern Test Range (AFETR). Debris objects in space refer to the collection of defunct objects orbiting the Earth. Examples of debris include non-operational satellites, rocket bodies, and fragments generated from explosions, collisions, or faulty payload assembly.

Loading next visibility...
Identifier
738, 1964-003B
Orbit
Active
Country
Flag of USUS
Related business
Manufacturer
ABL
Mission
Spacecraft
Bus & Motor
ALTAIR, Unknown motor
Mass
24 kg wet, 24 kg dry
Launch date (UTC)
1964-01-21 (62 years ago)
Launch vehicle
Unknown
Launch site
Air Force Eastern Test Range (AFETR)
Object type
Payload
Rocket body
Debris
Shape & HBR
Unknown
Radar Cross Section
Medium (>0.1 m² and <1 m²)

Expand to show TLE details & history
Last TLE update: 1 day ago

TLE from 1 day ago
0 DELTA 1 R/B
1 00738U 64003B   25354.25576173 -.00000018  00000-0  00000-0 0  9996
2 00738  46.4415 195.3055 2599719 173.1977 191.2537  7.39346163672240
Epoch: 2025-12-20T06:08Z
TLE epoch observation values (Epoch: 2025-12-20T06:08:17.813Z)
Latitude
0.00001°
Longitude
14.14611°
Altitude
7,610.508 km
Speed
4.603 km/s
True Right ascension
13h 01m 13s
True Declination
0° 00' 00"
Sunlit
Object was in daylight at epoch
Visualization orbit readout
Latitude
Unknown
Longitude
Unknown
Altitude
Unknown
Speed
Unknown
Apparent Right ascension
Unknown
Apparent Declination
Unknown
Sunlit
N/A
Visualization observer readout
Local Sidereal Time
12:05:23
Azimuth
Unknown
Elevation
Unknown
Doppler factor
Unknown
Orbital elements
Apogee altitude
7,646.797 km
Perigee altitude
1,859.225 km
Semi-major axis
11,131.148 km
Eccentricity
0.25997
Inclination
46.4415°
RAAN
195.3055°
Arg. of periapsis
173.1977°
True anomaly
186.85654°
Mean anomaly
191.2537°
Eccentric anomaly
188.93918°
Mean motion
1.84813 °/min
Orbital period
194.79 mins
BSTAR
0
Loading maneuver chart data...
Computing Atmospheric mass density...
Loading historical data...
Loading historical data...
Loading historical data...
Loading historical data...
Loading historical data...
Loading historical data...
Loading historical data...
Other satellites on launch #3 in the year 1964 (1964-01-21 UTC)

Documentation

Showing up to 5 results
|